Location: Stanford
(52.2833°N, 2.4333°W)
Time: 02:15:13
(UTC+00:00)

ATLAS 2AS CENTAUR R/B - Pass Details

Date: 22 January 2021
Orbit: 947 x 1265 km, 63.7° (Epoch: 13 February)

Event Time Altitude Azimuth Distance (km) Brightness Sun altitude
Rises 18:30:21 0° 260° (W) 4,221 7.7 -16.6°
Reaches altitude 10° 18:33:21 10° 267° (W) 3,251 6.5 -17.1°
Maximum altitude 18:40:51 44° 338° (NNW) 1,658 3.8 -18.2°
Enters shadow 18:46:13 18° 42° (NE) 2,573 4.3 -19.0°
